Sandy Hook Coast Guard Station, New Jersey, United States
Lat: 40.47N, Lon: 74.02W
Wx Zone: K56N
Local Info
Past Weather Observations for Today

NOTE: This archive is for the closest National Weather Service station to Sandy Hook Coast Guard Station. Information may differ from the station used for current weather conditions.

Click here for Long-term Archive

Time Weather Temperature Dewpoint Humidity Pressure Winds Precip Visibility
14:51
Partly Cloudy
73°F / 23°C 55°F / 13°C 53% 29.56 in
(1001 mb)
SW 21.9 mph
(SW 35 kph)
- 10SM
13:51
Partly Cloudy
73°F / 23°C 57°F / 14°C 57% 29.56 in
(1001 mb)
SSE 17.3 mph
(SSE 28 kph)
- 10SM
12:51
Mostly Cloudy
72°F / 22°C 57°F / 14°C 61% 29.59 in
(1002 mb)
SW 16.1 mph
(SW 26 kph)
- 10SM
12:24
Mostly Cloudy
70°F / 21°C 57°F / 14°C 64% 29.62 in
(1003 mb)
SSE 20.7 mph
(SSE 33 kph)
- 10SM
11:51
Mostly Cloudy
70°F / 21°C 57°F / 14°C 64% 29.62 in
(1003 mb)
SW 11.5 mph
(SW 19 kph)
- 10SM
10:51
Mostly Cloudy
68°F / 20°C 59°F / 15°C 73% 29.65 in
(1004 mb)
S 15 mph
(S 24 kph)
- 10SM
09:51
Mostly Cloudy
66°F / 19°C 57°F / 14°C 73% 29.68 in
(1005 mb)
S 11.5 mph
(S 19 kph)
0.00 in
(0.00 mm)
10SM
09:28
Mostly Cloudy
Light Rain
64°F / 18°C 57°F / 14°C 78% 29.68 in
(1005 mb)
S 12.7 mph
(S 20 kph)
0.00 in
(0.00 mm)
10SM
08:51
Overcast
64°F / 18°C 59°F / 15°C 83% 29.68 in
(1005 mb)
S 6.9 mph
(S 11 kph)
0.00 in
(0.00 mm)
10SM
07:51
Overcast
Light Rain
63°F / 17°C 59°F / 15°C 88% 29.68 in
(1005 mb)
S 15 mph
(S 24 kph)
0.01 in
(0.25 mm)
10SM
06:56
Overcast
Light Rain
61°F / 16°C 57°F / 14°C 88% 29.71 in
(1006 mb)
S 12.7 mph
(S 20 kph)
0.00 in
(0.00 mm)
8SM
06:51
Overcast
Light Rain
61°F / 16°C 57°F / 14°C 88% 29.71 in
(1006 mb)
S 12.7 mph
(S 20 kph)
0.00 in
(0.00 mm)
6SM
05:51
Overcast
Light Rain
63°F / 17°C 57°F / 14°C 83% 29.71 in
(1006 mb)
S 19.6 mph
(S 32 kph)
0.02 in
(0.51 mm)
6SM
05:41
Overcast
Light Rain
63°F / 17°C 55°F / 13°C 77% 29.71 in
(1006 mb)
S 24.2 mph
(S 39 kph)
0.02 in
(0.51 mm)
9SM
05:25
Overcast
Light Rain
63°F / 17°C 55°F / 13°C 77% 29.71 in
(1006 mb)
S 17.3 mph
(S 28 kph)
0.01 in
(0.25 mm)
6SM
04:51
Overcast
Light Rain
63°F / 17°C 57°F / 14°C 83% 29.71 in
(1006 mb)
SSE 23 mph
(SSE 37 kph)
0.07 in
(1.78 mm)
10SM
03:51
Overcast
Rain
57°F / 14°C 57°F / 14°C 100% 29.77 in
(1008 mb)
SSE 15 mph
(SSE 24 kph)
0.16 in
(4.06 mm)
3SM
02:51
Overcast
Rain
52°F / 11°C 52°F / 11°C 100% 29.83 in
(1010 mb)
SE 11.5 mph
(SE 19 kph)
0.10 in
(2.54 mm)
5SM
02:46
Overcast
Rain
52°F / 11°C 52°F / 11°C 100% 29.83 in
(1010 mb)
SE 12.7 mph
(SE 20 kph)
0.10 in
(2.54 mm)
5SM
01:51
Overcast
Light Rain
54°F / 12°C 52°F / 11°C 94% 29.89 in
(1012 mb)
SE 9.2 mph
(SE 15 kph)
0.00 in
(0.00 mm)
9SM
00:51
Overcast
Light Rain
54°F / 12°C 50°F / 10°C 88% 29.95 in
(1014 mb)
SE 8.1 mph
(SE 13 kph)
0.00 in
(0.00 mm)
10SM
00:35
Overcast
Light Rain
54°F / 12°C 50°F / 10°C 88% 29.95 in
(1014 mb)
SSE 6.9 mph
(SSE 11 kph)
0.00 in
(0.00 mm)
10SM
Time Weather Temperature Dewpoint Humidity Pressure Winds Precip Visibility


Weather for websites

WeatherForYou.com, LLC is not responsible for any damages or problems caused by this service. Current weather conditions are obtained from the closest station including government and personal stations which may have varying degrees of accuracy. Weather forecasts are derived from the NOAA NDFD. Like all things, this site belongs to Jesus Christ... He just trusts me to maintain it. If you have any questions or comments email webmaster@weatherforyou.com

Copyright © 2014, WeatherForYou.com LLC. All rights reserved.